QPF
0.00 0.00 0.00 0.00 0.00 0.00 0.00 0.00 0.00 0.00 0.00 0.00 0.00 0.00 0.00 0.00 0.00 0.00 0.00 0.00 0.00 0.00 0.00 0.00 0.00 0.00 0.00 0.00 0.00 0.00 0.00 0.00 0.00 0.00 0.00 0.00 0.01 0.02
0.00 0.00 0.00 0.00 0.00 0.00 0.00 0.00 0.00 0.00 0.00 0.00 0.00 0.00 0.00 0.00 0.00 0.00 0.00 0.00 0.00 0.00 0.00 0.00 0.00 0.00 0.00 0.00 0.00 0.00 0.00 0.00 0.00 0.00 0.01 0.01 0.02 0.04
0.00 0.00 0.00 0.01 0.01 0.02 0.02 0.02 0.02 0.01 0.00 0.00 0.00 0.00 0.00 0.00 0.00 0.00 0.00 0.00 0.00 0.00 0.00 0.00 0.00 0.00 0.00 0.00 0.00 0.00 0.00 0.00 0.01 0.01 0.01 0.02 0.03 0.02
0.00 0.00 0.01 0.02 0.03 0.05 0.06 0.04 0.01 0.00 0.00 0.00 0.00 0.00 0.00 0.00 0.00 0.00 0.00 0.00 0.00 0.00 0.00 0.00 0.00 0.00 0.00 0.00 0.00 0.00 0.00 0.01 0.00 0.00 0.00 0.00 0.00 0.00
0.02 0.07 0.11 0.12 0.12 0.07 0.03 0.01 0.01 0.00 0.00 0.00 0.00 0.00 0.00 0.00 0.00 0.00 0.00 0.00 0.00 0.00 0.00 0.00 0.00 0.00 0.00 0.00 0.00 0.00 0.00 0.00 0.00 0.00 0.00 0.00 0.00 0.00
0.04 0.05 0.06 0.05 0.03 0.01 0.01 0.00 0.00 0.00 0.00 0.00 0.00 0.00 0.00 0.00 0.00 0.00 0.00 0.00 0.00 0.00 0.00 0.00 0.00 0.00 0.00 0.00 0.00 0.00 0.00 0.00 0.00 0.00 0.00 0.00 0.00 0.00
0.12 0.10 0.07 0.05 0.03 0.01 0.00 0.00 0.00 0.00 0.00 0.00 0.00 0.00 0.00 0.00 0.00 0.00 0.00 0.00 0.00 0.00 0.00 0.00 0.00 0.00 0.00 0.00 0.00 0.00 0.00 0.00 0.00 0.00 0.00 0.00 0.01 0.01
0.14 0.08 0.05 0.02 0.01 0.00 0.00 0.00 0.00 0.00 0.00 0.00 0.00 0.00 0.00 0.00 0.00 0.00 0.00 0.00 0.00 0.00 0.00 0.00 0.00 0.00 0.00 0.00 0.00 0.00 0.00 0.00 0.00 0.00 0.00 0.00 0.00 0.01
0.01 0.00 0.00 0.00 0.00 0.00 0.00 0.00 0.00 0.00 0.00 0.00 0.00 0.00 0.00 0.00 0.00 0.00 0.00 0.00 0.00 0.00 0.00 0.00 0.00 0.00 0.00 0.00 0.00 0.00 0.00 0.00 0.00 0.00 0.00 0.00 0.00 0.01
0.00 0.00 0.00 0.00 0.00 0.00 0.00 0.00 0.00 0.00 0.00 0.00 0.00 0.00 0.00 0.00 0.00 0.01 0.00 0.00 0.00 0.00 0.00 0.00 0.00 0.00 0.00 0.00 0.00 0.00 0.00 0.00 0.00 0.00 0.00 0.00 0.00 0.00
0.00 0.00 0.00 0.00 0.00 0.00 0.00 0.00 0.00 0.00 0.00 0.00 0.00 0.00 0.00 0.00 0.00 0.00 0.00 0.00 0.00 0.00 0.00 0.00 0.00 0.00 0.00 0.00 0.00 0.00 0.00 0.00 0.00 0.00 0.00 0.00 0.00 0.00
0.00 0.00 0.00 0.00 0.00 0.00 0.00 0.00 0.00 0.00 0.00 0.00 0.00 0.00 0.00 0.00 0.00 0.00 0.00 0.00 0.01 0.01 0.00 0.00 0.00 0.00 0.00 0.00 0.00 0.00 0.00 0.00 0.00 0.00 0.00 0.00 0.00 0.00
0.00 0.00 0.00 0.00 0.00 0.00 0.00 0.00 0.00 0.00 0.00 0.00 0.00 0.00 0.00 0.00 0.00 0.00 0.00 0.00 0.01 0.01 0.00 0.02 0.03 0.00 0.01 0.00 0.00 0.00 0.00 0.00 0.00 0.00 0.00 0.00 0.00 0.00
0.00 0.00 0.00 0.00 0.00 0.00 0.00 0.00 0.00 0.00 0.00 0.00 0.00 0.00 0.00 0.00 0.00 0.00 0.00 0.00 0.00 0.00 0.00 0.01 0.05 0.01 0.03 0.02 0.00 0.00 0.00 0.00 0.00 0.00 0.00 0.00 0.00 0.00
0.00 0.00 0.00 0.00 0.00 0.00 0.00 0.00 0.00 0.00 0.00 0.00 0.00 0.00 0.00 0.00 0.00 0.00 0.00 0.00 0.00 0.00 0.00 0.00 0.01 0.00 0.02 0.02 0.01 0.00 0.00 0.00 0.00 0.00 0.00 0.00 0.00 0.00
0.00 0.00 0.00 0.00 0.00 0.00 0.00 0.00 0.00 0.00 0.00 0.00 0.00 0.00 0.00 0.00 0.00 0.00 0.00 0.00 0.00 0.00 0.00 0.00 0.00 0.00 0.02 0.01 0.02 0.01 0.00 0.00 0.00 0.00 0.00 0.00 0.00 0.00
0.00 0.00 0.00 0.00 0.00 0.00 0.00 0.00 0.00 0.00 0.00 0.00 0.00 0.00 0.00 0.00 0.00 0.00 0.00 0.00 0.01 0.00 0.00 0.00 0.00 0.00 0.00 0.01 0.03 0.00 0.00 0.00 0.00 0.00 0.00 0.00 0.00 0.00
0.00 0.00 0.00 0.00 0.00 0.00 0.00 0.00 0.00 0.00 0.00 0.00 0.00 0.00 0.00 0.00 0.00 0.00 0.00 0.01 0.01 0.00 0.00 0.00 0.00 0.00 0.00 0.00 0.01 0.02 0.01 0.00 0.00 0.00 0.00 0.01 0.01 0.00
0.00 0.00 0.00 0.00 0.00 0.00 0.00 0.00 0.00 0.00 0.00 0.00 0.00 0.00 0.00 0.00 0.00 0.00 0.00 0.00 0.00 0.00 0.00 0.00 0.01 0.04 0.03 0.00 0.00 0.01 0.11 0.05 0.01 0.01 0.00 0.00 0.00 0.00
0.00 0.00 0.00 0.00 0.00 0.00 0.00 0.00 0.00 0.00 0.00 0.00 0.00 0.00 0.00 0.00 0.00 0.00 0.00 0.00 0.01 0.01 0.00 0.00 0.00 0.05 0.09 0.07 0.05 0.00 0.01 0.07 0.05 0.02 0.00 0.00 0.00 0.00
0.00 0.00 0.00 0.00 0.00 0.00 0.00 0.00 0.00 0.00 0.00 0.00 0.00 0.00 0.00 0.01 0.01 0.00 0.00 0.00 0.01 0.01 0.01 0.00 0.00 0.01 0.02 0.03 0.01 0.00 0.00 0.01 0.06 0.08 0.05 0.03 0.00 0.00
0.00 0.00 0.00 0.00 0.00 0.00 0.00 0.00 0.00 0.00 0.00 0.00 0.00 0.00 0.00 0.01 0.01 0.01 0.00 0.01 0.00 0.01 0.01 0.00 0.00 0.00 0.01 0.03 0.02 0.00 0.00 0.00 0.00 0.01 0.05 0.08 0.07 0.04
0.00 0.00 0.00 0.00 0.00 0.00 0.00 0.00 0.00 0.00 0.00 0.00 0.00 0.00 0.00 0.01 0.00 0.00 0.01 0.01 0.02 0.02 0.01 0.00 0.00 0.00 0.00 0.02 0.03 0.02 0.00 0.00 0.00 0.00 0.00 0.01 0.00 0.00
MSLP
1018.58 1019.39 1019.95 1020.67 1020.66 1021.55 1021.66 1021.91 1022.76 1023.51 1023.69 1023.43 1023.72 1023.67 1024.03 1024.00 1023.71 1023.48 1023.57 1023.40 1022.80 1022.33 1021.82 1021.41 1020.94 1020.54 1020.13 1019.59 1019.14 1018.71 1018.29 1017.89 1017.46 1017.37 1016.82 1016.62 1016.43 1016.31
1018.88 1019.28 1020.07 1020.60 1021.29 1021.40 1021.78 1022.46 1023.04 1023.35 1023.68 1023.57 1023.55 1023.63 1023.59 1023.51 1023.34 1023.10 1023.08 1022.73 1022.35 1021.92 1021.29 1020.77 1020.38 1019.90 1019.47 1018.93 1018.39 1017.95 1017.58 1017.20 1016.79 1016.48 1016.19 1015.93 1015.78 1015.26
1019.08 1019.50 1020.26 1020.94 1021.26 1022.06 1022.40 1022.36 1023.29 1023.54 1023.40 1023.60 1023.62 1023.63 1023.58 1023.32 1022.91 1022.79 1022.66 1022.43 1021.93 1021.32 1020.74 1020.24 1019.75 1019.29 1018.75 1018.16 1017.73 1017.33 1016.98 1016.64 1016.19 1015.80 1015.44 1015.12 1014.99 1014.56
1019.74 1020.14 1020.75 1021.09 1021.78 1022.11 1022.36 1022.66 1023.25 1023.18 1023.40 1023.68 1023.71 1023.83 1023.65 1023.01 1022.53 1022.53 1022.09 1021.76 1021.35 1020.88 1020.30 1019.72 1019.13 1018.73 1018.21 1017.60 1017.13 1016.75 1016.36 1015.92 1015.46 1015.19 1014.87 1014.54 1014.35 1013.99
1020.16 1020.76 1021.02 1021.46 1021.79 1022.01 1022.52 1022.62 1022.78 1022.86 1023.17 1023.40 1023.40 1023.31 1023.12 1022.72 1022.35 1022.18 1021.84 1021.41 1020.92 1020.22 1019.66 1019.20 1018.68 1018.16 1017.58 1016.95 1016.41 1016.00 1015.63 1015.21 1014.78 1014.42 1014.07 1013.84 1013.52 1013.14
1020.59 1020.94 1021.25 1021.62 1021.55 1022.00 1022.09 1021.91 1022.28 1022.75 1022.97 1023.05 1023.04 1022.99 1022.78 1022.24 1022.17 1022.02 1021.36 1020.84 1020.34 1019.64 1019.01 1018.66 1018.13 1017.54 1016.93 1016.39 1015.88 1015.39 1014.98 1014.54 1014.08 1013.67 1013.28 1012.92 1012.54 1012.16
1021.12 1021.53 1021.70 1021.72 1021.54 1021.49 1021.59 1021.49 1021.86 1022.11 1022.46 1022.63 1022.73 1022.62 1022.36 1021.96 1021.85 1021.25 1020.74 1020.20 1019.79 1019.17 1018.39 1018.06 1017.70 1017.22 1016.37 1015.75 1015.25 1014.71 1014.24 1013.70 1013.15 1012.63 1012.11 1011.72 1011.48 1011.21
1021.26 1021.93 1021.77 1021.74 1021.52 1021.23 1021.45 1021.37 1021.35 1021.56 1021.81 1022.01 1022.19 1022.11 1021.81 1021.47 1021.11 1020.66 1020.14 1019.76 1018.91 1018.07 1017.85 1017.11 1016.99 1016.11 1015.51 1015.07 1014.45 1013.76 1013.12 1012.55 1012.09 1011.58 1011.11 1010.81 1010.54 1010.25
1020.77 1021.56 1022.00 1021.85 1021.46 1021.34 1021.47 1021.36 1021.27 1021.15 1021.03 1021.13 1021.36 1021.45 1021.17 1020.71 1020.19 1019.89 1019.58 1019.23 1018.68 1017.96 1017.75 1015.93 1015.99 1015.08 1014.49 1013.92 1013.37 1012.69 1012.09 1011.64 1011.16 1010.65 1010.15 1009.68 1009.31 1009.01
1021.24 1022.05 1022.13 1021.81 1021.57 1021.31 1021.26 1021.07 1020.95 1020.94 1020.90 1020.77 1020.71 1020.60 1020.29 1019.98 1019.61 1019.14 1018.76 1018.46 1018.14 1017.70 1017.33 1015.89 1014.83 1014.23 1013.61 1013.26 1012.51 1011.71 1011.13 1010.66 1010.19 1009.73 1009.22 1008.67 1008.31 1008.05
1021.80 1022.10 1022.00 1021.66 1021.39 1020.99 1020.73 1020.87 1020.77 1020.75 1020.51 1020.08 1019.88 1019.67 1019.34 1018.94 1018.58 1018.46 1018.53 1018.52 1017.78 1017.00 1016.44 1016.05 1014.78 1013.77 1013.00 1012.12 1011.43 1010.89 1010.31 1009.77 1009.25 1008.85 1008.34 1007.93 1007.50 1007.01
1021.93 1021.88 1021.69 1021.39 1020.97 1020.58 1020.48 1020.66 1020.76 1020.60 1020.23 1020.06 1019.91 1019.64 1019.26 1018.98 1018.41 1018.41 1018.44 1018.53 1018.06 1016.57 1015.50 1015.51 1014.74 1014.49 1012.38 1011.11 1010.69 1010.36 1009.83 1009.19 1008.54 1007.96 1007.43 1007.00 1006.64 1006.24
1021.74 1021.67 1021.46 1021.13 1020.71 1020.54 1020.38 1020.61 1020.47 1019.90 1019.94 1019.90 1019.72 1019.44 1019.09 1018.79 1018.36 1018.05 1017.87 1018.06 1017.64 1016.67 1015.13 1015.19 1014.37 1014.17 1013.77 1011.72 1010.23 1009.71 1009.30 1008.27 1007.74 1007.11 1006.61 1006.25 1005.87 1005.56
1021.49 1021.47 1021.32 1021.00 1020.82 1020.62 1020.45 1020.20 1019.86 1019.87 1020.00 1019.91 1019.79 1019.53 1019.21 1018.69 1018.04 1017.58 1017.15 1016.85 1016.61 1015.98 1014.70 1014.96 1014.28 1013.66 1012.91 1011.73 1010.31 1008.56 1008.10 1007.49 1007.04 1006.32 1005.87 1005.38 1004.92 1004.45
1021.48 1021.38 1021.25 1021.02 1020.84 1020.73 1020.44 1020.09 1019.96 1020.03 1020.04 1020.00 1019.77 1019.39 1019.00 1018.43 1017.70 1016.98 1016.32 1015.88 1015.43 1014.67 1013.94 1013.55 1013.41 1012.62 1012.19 1011.09 1009.80 1008.35 1007.50 1006.15 1005.87 1005.34 1004.92 1004.52 1003.98 1003.63
1021.45 1021.51 1021.29 1021.09 1020.93 1020.76 1020.58 1020.49 1020.30 1020.06 1019.86 1019.68 1019.50 1019.02 1018.42 1017.80 1017.21 1016.70 1016.17 1015.47 1014.83 1013.13 1012.51 1012.10 1011.97 1011.77 1010.91 1010.09 1009.18 1007.52 1006.62 1006.30 1004.72 1004.18 1003.88 1003.15 1002.74 1002.35
1021.45 1021.47 1021.41 1021.28 1021.08 1020.86 1020.58 1020.40 1020.25 1020.01 1019.76 1019.49 1019.23 1018.74 1018.03 1017.42 1016.67 1016.05 1015.64 1015.00 1014.56 1013.19 1011.63 1010.84 1010.58 1010.20 1009.59 1009.03 1007.96 1006.32 1005.35 1004.46 1003.83 1003.21 1002.96 1001.97 1001.11 1000.73
1021.70 1021.83 1021.77 1021.63 1021.43 1021.08 1020.77 1020.48 1020.21 1019.90 1019.70 1019.42 1018.97 1018.55 1017.90 1017.13 1016.26 1015.34 1014.76 1014.36 1013.60 1012.48 1011.47 1010.38 1009.59 1008.72 1007.66 1006.76 1006.38 1005.12 1004.05 1003.48 1002.48 1001.97 1001.63 1000.81 999.52 998.86
1022.14 1022.15 1021.95 1021.65 1021.48 1021.13 1020.80 1020.62 1020.28 1019.82 1019.46 1019.20 1018.79 1018.23 1017.57 1016.70 1015.79 1014.92 1014.06 1013.46 1012.50 1011.62 1010.61 1009.70 1008.75 1008.01 1006.86 1005.32 1003.74 1003.33 1003.06 1001.93 1001.26 1000.52 1000.08 999.54 998.53 997.20
1022.17 1021.98 1021.83 1021.53 1021.30 1021.04 1020.67 1020.38 1019.94 1019.48 1019.10 1018.70 1018.24 1017.59 1016.87 1016.12 1015.15 1014.26 1013.45 1012.72 1011.68 1010.42 1009.38 1008.59 1007.88 1007.03 1006.18 1004.85 1003.29 1001.52 1001.63 1001.10 1000.42 999.54 998.71 998.00 997.19 996.14
1022.11 1021.74 1021.45 1021.27 1021.05 1020.77 1020.34 1019.97 1019.65 1019.22 1018.58 1018.00 1017.62 1016.97 1016.09 1015.38 1014.38 1013.45 1012.53 1011.72 1010.80 1009.84 1008.83 1007.81 1006.82 1005.92 1005.24 1004.35 1003.14 1001.38 999.85 999.86 999.53 998.69 997.70 997.01 996.02 995.14
1021.95 1021.69 1021.23 1021.00 1020.65 1020.33 1019.88 1019.53 1019.15 1018.63 1018.04 1017.56 1017.01 1016.27 1015.34 1014.56 1013.57 1012.55 1011.72 1010.73 1009.82 1009.04 1008.08 1006.87 1005.84 1005.18 1004.56 1003.90 1002.65 1001.39 999.92 998.51 998.02 997.26 996.76 996.42 995.61 994.51
1021.81 1021.60 1021.08 1020.58 1020.17 1019.74 1019.36 1019.01 1018.59 1017.94 1017.24 1016.79 1016.23 1015.45 1014.59 1013.69 1012.64 1011.68 1010.70 1009.77 1008.98 1008.02 1007.20 1006.17 1005.14 1004.52 1003.81 1003.16 1002.17 1000.97 999.76 998.54 997.45 996.37 995.47 994.88 994.06 993.26
Thickness
5553 5545 5541 5534 5532 5524 5520 5516 5508 5499 5493 5493 5486 5481 5475 5471 5468 5466 5462 5458 5456 5455 5455 5454 5454 5453 5452 5451 5450 5450 5450 5451 5452 5450 5452 5451 5450 5449
5539 5536 5529 5523 5515 5511 5507 5499 5492 5487 5482 5480 5476 5468 5464 5460 5455 5451 5447 5444 5442 5440 5440 5440 5438 5438 5436 5436 5436 5435 5435 5434 5433 5432 5430 5429 5428 5429
5527 5523 5516 5508 5503 5495 5489 5486 5474 5470 5471 5464 5459 5454 5449 5445 5442 5437 5432 5430 5428 5424 5423 5422 5421 5420 5419 5420 5418 5417 5415 5412 5411 5410 5408 5407 5404 5404
5511 5507 5500 5496 5487 5482 5477 5471 5462 5460 5454 5448 5443 5437 5432 5430 5429 5425 5420 5414 5411 5407 5405 5404 5404 5400 5399 5398 5396 5394 5391 5388 5386 5383 5381 5379 5376 5374
5497 5490 5487 5481 5474 5468 5463 5457 5452 5448 5441 5435 5431 5424 5419 5415 5414 5409 5405 5401 5396 5391 5388 5386 5383 5377 5374 5373 5371 5368 5361 5358 5357 5355 5353 5352 5352 5352
5482 5478 5473 5468 5464 5455 5451 5450 5442 5433 5426 5421 5415 5408 5404 5401 5395 5391 5392 5386 5382 5375 5371 5367 5362 5354 5346 5344 5341 5336 5332 5331 5332 5333 5335 5334 5334 5335
5467 5462 5456 5454 5451 5448 5443 5439 5431 5422 5412 5404 5398 5392 5388 5386 5380 5379 5376 5372 5367 5358 5356 5345 5337 5328 5320 5317 5313 5311 5311 5311 5313 5315 5316 5316 5315 5315
5455 5448 5445 5441 5439 5437 5431 5426 5419 5408 5396 5388 5381 5380 5375 5370 5365 5362 5358 5353 5355 5340 5332 5329 5310 5314 5306 5304 5297 5292 5289 5288 5288 5292 5294 5294 5293 5293
5450 5439 5432 5430 5427 5422 5414 5409 5403 5395 5389 5383 5374 5364 5361 5354 5352 5344 5336 5331 5324 5315 5307 5322 5301 5303 5294 5287 5276 5271 5268 5267 5271 5276 5279 5281 5282 5283
5436 5424 5418 5415 5412 5410 5402 5395 5388 5379 5372 5365 5358 5350 5345 5338 5331 5327 5320 5315 5307 5299 5287 5299 5291 5286 5276 5266 5259 5253 5252 5255 5259 5263 5268 5273 5275 5276
5418 5411 5407 5404 5399 5397 5393 5384 5375 5364 5356 5348 5341 5333 5327 5320 5315 5310 5302 5296 5296 5291 5278 5275 5270 5266 5257 5256 5250 5245 5244 5248 5253 5258 5261 5265 5268 5272
5407 5401 5398 5395 5391 5386 5378 5367 5355 5344 5335 5324 5317 5312 5307 5303 5301 5297 5291 5281 5277 5281 5275 5264 5254 5246 5253 5254 5249 5245 5244 5246 5251 5255 5258 5261 5264 5267
5399 5394 5388 5383 5377 5369 5359 5344 5334 5327 5313 5305 5298 5296 5295 5295 5293 5288 5282 5273 5269 5267 5269 5260 5253 5246 5239 5248 5253 5248 5245 5250 5252 5254 5256 5258 5261 5263
5391 5383 5376 5370 5359 5348 5335 5323 5315 5305 5296 5292 5291 5291 5289 5286 5284 5280 5277 5272 5266 5265 5266 5255 5251 5244 5243 5245 5249 5255 5251 5251 5252 5255 5255 5255 5256 5259
5379 5372 5362 5351 5338 5323 5312 5303 5296 5291 5291 5289 5288 5286 5283 5279 5278 5277 5275 5272 5268 5266 5264 5260 5254 5251 5244 5245 5250 5253 5255 5261 5255 5256 5256 5256 5257 5258
5365 5355 5345 5331 5317 5307 5296 5290 5291 5292 5292 5290 5286 5283 5280 5275 5274 5272 5270 5268 5266 5271 5269 5265 5259 5252 5251 5250 5251 5257 5257 5255 5263 5262 5261 5264 5265 5266
5354 5342 5328 5316 5307 5300 5297 5295 5292 5291 5290 5288 5284 5281 5277 5273 5272 5271 5267 5265 5262 5267 5272 5270 5265 5260 5256 5252 5255 5263 5266 5268 5268 5268 5267 5271 5275 5277
5340 5326 5315 5309 5304 5300 5297 5294 5292 5290 5287 5284 5281 5277 5273 5270 5269 5270 5269 5265 5264 5266 5267 5270 5269 5268 5266 5263 5257 5262 5267 5269 5273 5273 5272 5277 5284 5288
5326 5313 5309 5306 5300 5298 5295 5291 5288 5287 5284 5280 5277 5274 5271 5269 5270 5268 5267 5266 5268 5267 5267 5268 5270 5269 5272 5273 5275 5269 5270 5279 5281 5282 5281 5283 5288 5297
5316 5309 5304 5302 5298 5294 5292 5289 5287 5285 5283 5280 5277 5275 5274 5271 5270 5268 5267 5266 5268 5272 5273 5272 5270 5269 5270 5275 5281 5286 5277 5279 5282 5286 5290 5292 5295 5302
5307 5304 5302 5298 5294 5290 5289 5286 5283 5281 5282 5281 5278 5277 5276 5273 5273 5271 5270 5270 5271 5271 5272 5272 5273 5273 5271 5272 5275 5284 5290 5285 5285 5289 5294 5297 5301 5305
5300 5298 5297 5294 5292 5288 5287 5284 5281 5280 5280 5278 5277 5277 5277 5275 5274 5275 5273 5273 5273 5273 5273 5275 5276 5274 5272 5271 5276 5281 5289 5295 5293 5294 5294 5295 5299 5305
5292 5290 5290 5290 5289 5287 5285 5282 5281 5281 5281 5279 5277 5278 5278 5278 5278 5278 5277 5277 5276 5277 5276 5277 5277 5274 5274 5273 5277 5282 5286 5292 5295 5297 5296 5295 5298 5302